Weather History for Goshen, IN

Change the Weather History Date:

Tuesday, December 31, 2013

  Actual Average Record
Temperature  
Mean Temperature 14 °F -  
Max Temperature 16 °F 32 °F 58 °F (1965)
Min Temperature 12 °F 19 °F -12 °F (1963)
Degree Days  
Heating Degree Days 51    
Moisture  
Dew Point 9 °F    
Average Humidity 79    
Maximum Humidity 86    
Minimum Humidity 65    
Precipitation  
Precipitation 0.04 in - - ()
Sea Level Pressure  
Sea Level Pressure 30.25 in    
Wind  
Wind Speed 10 mph (WSW)    
Max Wind Speed 17 mph    
Max Gust Speed -    
Visibility 3 miles    
Events Snow    
Averages and records for this station are not official NWS values.
T = Trace of Precipitation, MM = Missing Value Source: NWS Daily Summary

Daily Weather History Graph

Daily Weather History Graph

Search for Another Location

Airport:

Trip Planner

Search our weather history database for the weather conditions in past years. The results will help you decide how hot, cold, wet, or windy it might be!

Date:

Astronomy

Dec. 31, 2013 Rise Set
Actual Time 8:09 AM EST 5:23 PM EST
Civil Twilight 7:38 AM EST 5:54 PM EST
Nautical Twilight 7:03 AM EST 6:29 PM EST
Astronomical Twilight 6:29 AM EST 7:03 PM EST
Moon 7:01 AM EST (12/31) 4:59 PM EST (12/31)
Length of Visible Light 10h 16m
Length of Day
9h 13m
Waning Crescent, 1% of the Moon is Illuminated
Dec 31
Waning Crescent
Jan 1
New
Jan 7
First Quarter
Jan 15
Full
Jan 24
Last Quarter

Hourly Weather History & Observations

Time (EST) Temp. Windchill Dew Point Humidity Pressure Visibility Wind Dir Wind Speed Gust Speed Precip Events Conditions
12:16 AM 15.8 °F 3.4 °F 8.6 °F 73% 30.15 in 2.5 mi WSW 10.4 mph - 0.00 in Snow Light Snow
12:35 AM 15.8 °F 3.4 °F 10.4 °F 79% 30.14 in 1.2 mi WSW 10.4 mph - 0.00 in Snow Light Snow
12:53 AM 15.1 °F 3.3 °F 10.0 °F 80% 30.18 in 2.0 mi WSW 9.2 mph - 0.00 in Snow Light Snow
1:16 AM 14.0 °F 2.9 °F 10.4 °F 86% 30.13 in 3.0 mi WSW 8.1 mph - 0.00 in Snow Light Snow
1:49 AM 14.0 °F 2.9 °F 8.6 °F 79% 30.12 in 2.5 mi WSW 8.1 mph - 0.00 in Snow Light Snow
1:53 AM 14.0 °F 2.0 °F 10.0 °F 84% 30.17 in 3.0 mi West 9.2 mph - 0.00 in Snow Light Snow
2:12 AM 15.8 °F 3.4 °F 10.4 °F 79% 30.12 in 2.5 mi West 10.4 mph - 0.00 in Snow Light Snow
2:53 AM 14.0 °F 2.0 °F 10.0 °F 84% 30.17 in 3.0 mi West 9.2 mph - 0.00 in Snow Light Snow
3:10 AM 15.8 °F 3.4 °F 10.4 °F 79% 30.13 in 2.0 mi West 10.4 mph - 0.00 in Snow Light Snow
3:14 AM 15.8 °F 2.1 °F 10.4 °F 79% 30.12 in 1.2 mi West 12.7 mph - 0.00 in Snow Light Snow
3:34 AM 15.8 °F 2.1 °F 8.6 °F 73% 30.12 in 3.0 mi West 12.7 mph - 0.00 in Snow Light Snow
3:53 AM 14.0 °F -0.2 °F 9.0 °F 80% 30.16 in 6.0 mi West 12.7 mph - 0.00 in Snow Light Snow
4:53 AM 14.0 °F -2.0 °F 7.0 °F 74% 30.16 in 10.0 mi West 16.1 mph - 0.00 in   Overcast
5:04 AM 14.0 °F -1.4 °F 8.6 °F 79% 30.13 in 10.0 mi West 15.0 mph - N/A   Overcast
5:53 AM 14.0 °F -2.5 °F 7.0 °F 74% 30.18 in 7.0 mi West 17.3 mph - 0.00 in   Overcast
6:53 AM 12.9 °F -1.6 °F 7.0 °F 77% 30.20 in 7.0 mi West 12.7 mph - 0.00 in   Overcast
7:53 AM 12.0 °F -2.0 °F 7.0 °F 80% 30.22 in 5.0 mi WSW 11.5 mph - 0.00 in Snow Light Snow
7:59 AM 12.2 °F -2.5 °F 6.8 °F 79% 30.18 in 1.8 mi WSW 12.7 mph - 0.00 in Snow Light Snow
8:10 AM 12.2 °F -1.8 °F 6.8 °F 79% 30.19 in 3.0 mi WSW 11.5 mph - 0.00 in Snow Light Snow
8:53 AM 12.0 °F -3.4 °F 7.0 °F 80% 30.27 in 3.0 mi WSW 13.8 mph - 0.00 in Snow Light Snow
9:43 AM 12.2 °F -1.0 °F 6.8 °F 79% 30.25 in 2.5 mi SW 10.4 mph - 0.00 in Snow Light Snow
9:53 AM 12.0 °F -2.0 °F 7.0 °F 80% 30.30 in 2.5 mi SW 11.5 mph - 0.00 in Snow Light Snow
10:07 AM 12.2 °F -1.8 °F 6.8 °F 79% 30.26 in 3.0 mi SW 11.5 mph - 0.00 in Snow Light Snow
10:32 AM 12.2 °F -2.5 °F 6.8 °F 79% 30.28 in 2.5 mi SW 12.7 mph - 0.00 in Snow Light Snow
10:46 AM 12.2 °F -3.7 °F 6.8 °F 79% 30.29 in 1.8 mi SW 15.0 mph - 0.00 in Snow Light Snow
10:53 AM 12.0 °F -3.4 °F 7.0 °F 80% 30.35 in 2.0 mi WSW 13.8 mph - 0.00 in Snow Light Snow
11:12 AM 14.0 °F -0.2 °F 6.8 °F 73% 30.30 in 5.0 mi WSW 12.7 mph - 0.00 in   Haze
11:53 AM 14.0 °F -2.0 °F 6.1 °F 71% 30.37 in 10.0 mi WSW 16.1 mph - 0.00 in   Scattered Clouds
12:53 PM 14.0 °F -2.0 °F 5.0 °F 67% 30.34 in 10.0 mi West 16.1 mph - N/A   Partly Cloudy
1:53 PM 16.0 °F 2.3 °F 7.0 °F 68% 30.32 in 10.0 mi WSW 12.7 mph - N/A   Overcast
2:53 PM 16.0 °F 3.6 °F 6.1 °F 65% 30.31 in 10.0 mi WSW 10.4 mph - N/A   Mostly Cloudy
3:53 PM 16.0 °F 3.6 °F 7.0 °F 68% 30.32 in 10.0 mi West 10.4 mph - N/A   Overcast
4:18 PM 15.8 °F 2.7 °F 8.6 °F 73% 30.28 in 1.8 mi West 11.5 mph - 0.00 in Snow Light Snow
4:53 PM 16.0 °F 6.3 °F 10.0 °F 77% 30.33 in 2.0 mi WSW 6.9 mph - 0.00 in Snow Light Snow
5:02 PM 15.8 °F 6.1 °F 10.4 °F 79% 30.28 in 1.0 mi WSW 6.9 mph - 0.00 in Snow Light Snow
5:12 PM 15.8 °F 7.2 °F 10.4 °F 79% 30.28 in 0.8 mi West 5.8 mph - 0.00 in Snow Light Snow
5:23 PM 15.8 °F 7.2 °F 10.4 °F 79% 30.27 in 1.0 mi WSW 5.8 mph - 0.00 in Snow Light Snow
5:53 PM 16.0 °F 8.8 °F 10.9 °F 81% 30.32 in 1.8 mi WSW 4.6 mph - 0.00 in Snow Light Snow
6:05 PM 15.8 °F 8.6 °F 10.4 °F 79% 30.27 in 1.8 mi West 4.6 mph - 0.00 in Snow Light Snow
6:34 PM 15.8 °F - 10.4 °F 79% 30.27 in 1.5 mi Calm Calm - 0.00 in Snow Light Snow
6:45 PM 15.8 °F - 10.4 °F 79% 30.27 in 2.0 mi Calm Calm - 0.00 in Snow Light Snow
6:53 PM 16.0 °F 10.4 °F 10.9 °F 81% 30.32 in 2.0 mi West 3.5 mph - 0.00 in Snow Light Snow
7:32 PM 15.8 °F - 10.4 °F 79% 30.28 in 1.2 mi Calm Calm - 0.00 in Snow Light Snow
7:39 PM 15.8 °F - 12.2 °F 86% 30.28 in 1.2 mi Calm Calm - 0.00 in Snow Light Snow
7:53 PM 16.0 °F 10.4 °F 12.0 °F 84% 30.33 in 1.2 mi SW 3.5 mph - 0.01 in Snow Light Snow
8:53 PM 16.0 °F 8.8 °F 12.0 °F 84% 30.34 in 1.0 mi SW 4.6 mph - 0.01 in Snow Light Snow
9:23 PM 15.8 °F 6.1 °F 12.2 °F 86% 30.30 in 2.0 mi WSW 6.9 mph - 0.01 in Snow Light Snow
9:51 PM 15.8 °F 7.2 °F 12.2 °F 86% 30.30 in 1.8 mi West 5.8 mph - 0.01 in Snow Light Snow
9:53 PM 16.0 °F 7.4 °F 12.0 °F 84% 30.35 in 1.5 mi West 5.8 mph - 0.01 in Snow Light Snow
10:48 PM 15.8 °F 10.2 °F 12.2 °F 86% 30.30 in 2.0 mi NNW 3.5 mph - 0.00 in Snow Light Snow
10:53 PM 16.0 °F 10.4 °F 12.0 °F 84% 30.35 in 2.0 mi North 3.5 mph - 0.00 in Snow Light Snow
11:06 PM 15.8 °F 8.6 °F 12.2 °F 86% 30.29 in 1.8 mi North 4.6 mph - 0.01 in Snow Light Snow
11:53 PM 16.0 °F - 12.0 °F 84% 30.34 in 1.2 mi Calm Calm - 0.01 in Snow Light Snow